Tracking 28356 objects as of 8-Dec-2023
HD Live streaming from Space Station
objects crossing your sky now

STARLINK-30872

Track STARLINK-30872 now!
10-day predictions
STARLINK-30872 is classified as:


NORAD ID: 58225
Int'l Code: 2023-170V
Perigee: 500.3 km
Apogee: 502.5 km
Inclination: 43.0 °
Period: 94.5 minutes
Semi major axis: 6872 km
RCS: Unknown
Launch date: November 3, 2023
Source: United States (US)
Launch site: AIR FORCE EASTERN TEST RANGE (AFETR)
Your satellite tracking list
Your tracking list is empty




NASA's NSSDC Master Catalog

Two Line Element Set (TLE):
1 58225U 23170V   23341.83335648 -.02185648  00000-0 -99421-1 0  9990
2 58225  43.0003 347.3733 0001570 275.5118 201.0492 15.23843800  5328
Source of the keplerian elements: AFSPC